OneWeb SL0646

operational
NORAD ID: 55810 Int'l Des: 2023-029 Owner: ONEWEBN Country: UK Constellation: oneweb
LEOCIRCULARPOLARONEWEB_TYPE

About OneWeb SL0646

Description loading...

Live Position

Loading 3D Globe...

Upcoming Passes

Altitude History

Altitude vs Time

uPlot chart will show altitude changes over time

Two-Line Element Set

1 55810U 23029Q 25304.16627505 .00000072 00000-0 14802-3 0 9998
2 55810 87.9232 350.5491 0002171 100.6198 259.5179 13.19722511128680
Epoch: Oct 31, 2025 • Age: 9 hours

Current Status

Altitude 1213.7 km
Velocity 7.25 km/s
Sub-Earth Point -70.37°S, 113.61°E
Launch Date Mar 9, 2023
Age 2.6 years
Type internet

Technical Details

Classification Payload
Mass 148.00 kg
Dry Mass 140.00 kg
Total Mass 148.00 kg
Length 1.30 m
Diameter 1.00 m
Span 5.00 m
Shape Trapezoid+2 pan
Manufacturer ONEWUS
Bus Type ARROW
Phase Status In Orbit
Owner/State ONEWEBN/UK

Large Constellations

Loading constellations...